Погода в Юрле

Россия / Пермский край     59°19′29″N   54°19′09″E
темп.,
°C
ветер,
м/с
пор.,
м/с
влажн.,
%
обл.,
%
осадки,
мм/ч
давл.,
гПа
погр.,
м
6 марта, сб
сб623:00−16зсз239769 0.0 100232
02:00−18з239710 0.0 100444
05:00−20з369719 0.0 1006130
08:00−20зсз379773 0.0 1006194
11:00−17зсз379362 0.0 1008265
14:00−13з358690 0.0 1008586
17:00−12з358895 0.1 1008743
20:00−15зюз2395100 0.1 100955
7 марта, вс
вс723:00−18зюз239797 0.1 100935
02:00−19зюз229890 0.0 100926
05:00−20юз229884 0.1 100925
08:00−19зюз229893 0.1 100978
11:00−16юз139193 0.1 1009278
14:00−13юз2382100 0.0 1008716
17:00−12юз1281100 0.1 1006744
20:00−17ююв1294100 0.0 100620
8 марта, пн
пн823:00−18ю229897 0.1 100620
02:00−19юв2310086 0.0 100440
05:00−18вюв379892 0.0 1002202
08:00−17вюв4896100 0.3 999332
11:00−14вюв4892100 0.7 998494
14:00−12вюв4791100 0.3 996604
17:00−10в3693100 0.9 996495
20:00−12всв2697100 0.3 996174
9 марта, вт
вт923:00−14ссв2297100 0.4 99741
02:00−15с2298100 0.1 99728
05:00−16с259898 0.1 999144
08:00−16с3796100 0.1 1001262
11:00−16ссз3693100 0.3 1003402
14:00−14ссз3591100 0.1 1006490
17:00−15ссз3692100 0.4 1008507
20:00−18ссз3796100 0.1 1010410
10 марта, ср
ср1023:00−21с389799 0.2 1013288
02:00−26ссз259888 0.0 101499
05:00−30ссз249851 0.0 101682
08:00−32ссз23980 0.0 101880
11:00−26ссз24940 0.0 1018245
14:00−20сз24820 0.0 1017494
17:00−18зсз35847 0.0 1016593
20:00−21з38945 0.0 1016205